Location: *
(45.9500°N, 9.0833°E)
Time: 19:52:00
(UTC+00:00)

Tiros 1 despin weight - Pass Details

Date: 29 June 2021
Orbit: 593 x 642 km, 48.2° (Epoch: 05 August)

Event Time Altitude Azimuth Distance (km) Brightness Sun altitude
Rises 08:07:15 0° 283° (WNW) 2,827 ? 44.0°
Reaches altitude 10° 08:10:09 10° 264° (W) 1,922 ? 44.4°
Maximum altitude 08:13:04 17° 222° (SW) 1,496 ? 44.9°
Drops below altitude 10° 08:15:58 10° 181° (S) 1,920 ? 45.4°
Sets 08:18:52 0° 161° (SSE) 2,823 ? 45.9°
